Location: Klein M�hlingen
(51.9472°N, 11.7453°E)
Time: 11:49:52
(UTC+00:00)

ISS - Visible Passes

Search period start: 29 November 2022 00:00
Search period end: 09 December 2022 00:00
Orbit: 411 x 420 km, 51.6° (Epoch: 29 November)

Date Brightness Start Highest point End Pass type
(mag) Time Alt. Az. Time Alt. Az. Time Alt. Az.
29 Nov -3.8 16:51:16 10° W 16:54:36 84° S 16:55:46 37° E visible
29 Nov -0.6 18:28:02 10° W 18:28:40 14° W 18:28:40 14° W visible
30 Nov -3.8 16:02:32 10° W 16:05:53 88° S 16:09:05 11° E visible
30 Nov -2.7 17:39:16 10° W 17:41:58 44° WSW 17:41:58 44° WSW visible
01 Dec -3.5 16:50:31 10° W 16:53:49 65° SSW 16:55:20 29° ESE visible
01 Dec -0.5 18:27:34 10° W 18:28:13 13° WSW 18:28:13 13° WSW visible
02 Dec -3.7 16:01:45 10° W 16:05:04 77° SSW 16:08:25 10° ESE visible
02 Dec -2.1 17:38:35 10° W 17:41:32 29° SSW 17:41:39 29° SSW visible
03 Dec -2.6 16:49:41 10° W 16:52:51 40° SSW 16:55:12 16° SE visible
04 Dec -3.0 16:00:50 10° W 16:04:06 53° SSW 16:07:21 10° ESE visible
04 Dec -1.1 17:38:12 10° WSW 17:40:18 16° SW 17:41:48 12° S visible
05 Dec -1.4 16:48:57 10° W 16:51:38 22° SSW 16:54:18 10° SSE visible
06 Dec -1.8 15:59:53 10° W 16:02:54 31° SSW 16:05:53 10° SE visible
07 Dec -0.5 16:48:57 10° WSW 16:50:08 12° SW 16:51:20 10° SSW visible
08 Dec -0.7 15:59:11 10° W 16:01:26 17° SW 16:03:41 10° S visible
